Latest Coastal Weather Observations for Christmas Island

IDW60701

Issued at 1:33 am WST Thursday 3 September 2026 (issued every 10 minutes, with the page automatically refreshed every 10 minutes)

About coastal observations | Map of coastal stations | Coastal observations for WA | Marine services | Other Formats
Station Details ID: 200790 Name: CHRISTMAS ISLAND AERO Lat: -10.45 Lon: 105.69 Height: 261.0 m
Data from the previous 72 hours. | See also: Recent months at Christmas Island
Date/Time
WST
Wind Sea
Height
m
Swell Vis
km
Cloud Weather Temp
°C
Press
MSL
hPa
Rain since
9am
mm
Dir  Spd
kts
Gust
kts
Height
m
Period
s
Dir
03/01:30am SE 11 17 - - - - 10 Partly cloudy - 23.5 1014.8 0.0
03/01:00am SE 12 18 - - - - 10 Cloudy - 23.5 1015.2 0.0
03/12:30am SE 13 19 - - - - 10 Partly cloudy - 23.5 1015.3 0.0
03/12:00am SE 13 23 - - - - 10 Partly cloudy - 23.7 1015.5 0.0
 
Date/Time
WST
Wind Sea
Height
m
Swell Vis
km
Cloud Weather Temp
°C
Press
MSL
hPa
Rain since
9am
mm
Dir  Spd
kts
Gust
kts
Height
m
Period
s
Dir
02/11:30pm SE 11 18 - - - - 10 Cloudy - 23.7 1015.7 0.0
02/11:00pm SE 11 16 - - - - 10 Partly cloudy - 23.8 1015.6 0.0
02/10:30pm SE 11 17 - - - - 10 Partly cloudy - 23.8 1015.7 0.0
02/10:00pm ESE 13 23 - - - - 10 Cloudy - 23.8 1015.5 0.0
02/09:30pm ESE 14 19 - - - - 10 Partly cloudy - 23.9 1015.5 0.0
02/09:00pm ESE 14 20 - - - - 10 Partly cloudy - 23.8 1015.1 0.0
02/08:30pm ESE 13 20 - - - - 10 Partly cloudy - 23.8 1014.9 0.0
02/08:26pm ESE 13 20 - - - - 10 Partly cloudy - 23.9 1014.9 0.0
02/08:12pm ESE 15 25 - - - - 10 Partly cloudy - 24.0 1014.8 0.0
02/08:00pm ESE 13 19 - - - - 10 Partly cloudy - 24.0 1014.6 0.0
02/07:30pm ESE 13 21 - - - - 10 Partly cloudy - 24.0 1014.4 0.0
02/07:00pm ESE 12 18 - - - - 10 Mostly cloudy - 24.0 1014.1 0.0
02/06:30pm ESE 14 19 - - - - 10 Partly cloudy - 24.3 1014.1 0.0
02/06:00pm ESE 14 19 - - - - 10 Partly cloudy - 24.4 1013.9 0.0
02/05:30pm ESE 13 21 - - - - 10 Partly cloudy - 24.9 1013.8 0.0
02/05:00pm ESE 12 19 - - - - 10 Partly cloudy - 25.1 1013.7 0.0
02/04:30pm ESE 12 19 - - - - 10 Partly cloudy - 25.3 1013.8 0.0
02/04:00pm E 13 20 - - - - 10 Cloudy - 25.6 1013.9 0.0
02/03:30pm E 15 21 - - - - 10 Partly cloudy - 26.0 1014.0 0.0
02/03:24pm ESE 15 21 - - - - 10 Partly cloudy - 26.2 1014.1 0.0
02/03:23pm E 15 21 - - - - 10 Partly cloudy - 26.2 1014.1 0.0
02/03:00pm ESE 14 20 - - - - 10 Partly cloudy - 25.9 1014.4 0.0
02/02:30pm E 15 22 - - - - 10 Partly cloudy - 26.0 1014.7 0.0
02/02:00pm E 16 22 - - - - 10 Partly cloudy - 26.4 1015.0 0.0
02/01:36pm E 15 21 - - - - 10 Partly cloudy - 26.5 1015.2 0.0
02/01:30pm E 15 20 - - - - 10 Partly cloudy - 26.1 1015.2 0.0
02/01:00pm E 14 23 - - - - 10 Cloudy - 25.9 1015.4 0.0
02/12:36pm E 15 22 - - - - 10 Partly cloudy - 26.7 1015.6 0.0
02/12:30pm ESE 15 21 - - - - 10 Partly cloudy - 26.5 1015.7 0.0
02/12:00pm E 13 19 - - - - 10 Partly cloudy - 25.9 1015.9 0.0
02/11:44am E 15 21 - - - - 10 Partly cloudy - 25.6 1016.1 0.0
02/11:30am E 16 21 - - - - 10 Partly cloudy - 26.5 1016.2 0.0
02/11:00am E 16 22 - - - - 10 Mostly clear - 26.2 1016.7 0.0
02/10:30am ESE 16 23 - - - - 10 Mostly clear - 26.3 1016.9 0.0
02/10:16am E 15 23 - - - - 10 Partly cloudy - 26.0 1017.0 0.0
02/10:00am E 15 22 - - - - 10 Partly cloudy - 25.8 1017.0 0.0
02/09:30am ESE 15 21 - - - - 10 Partly cloudy - 25.2 1016.7 0.0
02/09:00am ESE 12 20 - - - - 10 Partly cloudy - 24.1 1016.6 0.0
02/08:50am ESE 12 19 - - - - 10 Partly cloudy - 24.3 1016.4 0.0
02/08:30am ESE 12 17 - - - - 10 Mostly clear - 24.6 1016.3 0.0
02/08:14am ESE 11 17 - - - - 10 Partly cloudy - 24.3 1016.1 0.0
02/08:00am ESE 12 18 - - - - 10 Partly cloudy - 24.1 1016.2 0.0
02/07:30am ESE 11 16 - - - - 10 Partly cloudy - 23.8 1016.1 0.0
02/07:02am ESE 10 15 - - - - 10 Partly cloudy - 23.4 1015.8 0.0
02/07:00am ESE 10 15 - - - - 10 Partly cloudy - 23.4 1015.8 0.0
02/06:49am ESE 11 17 - - - - 10 Partly cloudy - 23.4 1015.7 0.0
02/06:30am ESE 12 18 - - - - 10 Partly cloudy - 23.4 1015.5 0.0
02/06:00am ESE 10 18 - - - - 10 Partly cloudy - 23.5 1015.2 0.0
02/05:30am ESE 10 15 - - - - 10 Partly cloudy - 23.4 1015.0 0.0
02/05:00am ESE 11 15 - - - - 10 Partly cloudy - 23.5 1015.1 0.0
02/04:30am ESE 12 16 - - - - 10 Partly cloudy - 23.4 1015.0 0.0
02/04:00am ESE 11 19 - - - - 10 Mostly cloudy - 23.5 1015.1 0.0
02/03:30am ESE 12 16 - - - - 10 Partly cloudy - 23.4 1014.9 0.0
02/03:01am ESE 12 19 - - - - 10 Partly cloudy - 23.5 1014.9 0.0
02/03:00am ESE 12 19 - - - - 10 Partly cloudy - 23.5 1014.9 0.0
02/02:30am ESE 12 16 - - - - 10 Partly cloudy - 23.5 1015.1 0.0
02/02:00am ESE 13 18 - - - - 10 Cloudy - 23.7 1015.3 0.0
02/01:30am SE 12 18 - - - - 10 Cloudy - 23.6 1015.5 0.0
02/01:00am ESE 12 19 - - - - 10 Mostly cloudy - 23.7 1016.0 0.0
02/12:30am ESE 11 15 - - - - 10 Partly cloudy - 23.8 1016.2 0.0
02/12:00am ESE 11 16 - - - - 10 Cloudy - 23.9 1016.6 0.0
 
Date/Time
WST
Wind Sea
Height
m
Swell Vis
km
Cloud Weather Temp
°C
Press
MSL
hPa
Rain since
9am
mm
Dir  Spd
kts
Gust
kts
Height
m
Period
s
Dir
01/11:30pm ESE 10 17 - - - - 10 Partly cloudy - 23.9 1016.8 0.0
01/11:00pm ESE 10 15 - - - - 10 Partly cloudy - 24.1 1017.0 0.0
01/10:30pm ESE 9 13 - - - - 10 Partly cloudy - 24.0 1017.0 0.0
01/10:00pm ESE 8 14 - - - - 10 Cloudy - 24.0 1016.9 0.0
01/09:30pm SE 9 14 - - - - 10 Cloudy - 24.1 1016.6 0.0
01/09:00pm ESE 9 13 - - - - 10 Cloudy - 24.2 1016.2 0.0
01/08:30pm ESE 9 14 - - - - 10 Cloudy - 24.2 1015.8 0.0
01/08:00pm ESE 7 12 - - - - 10 Partly cloudy - 24.3 1015.6 0.0
01/07:30pm ESE 8 13 - - - - 10 Cloudy - 24.2 1015.1 0.0
01/07:00pm E 9 16 - - - - 10 Mostly cloudy - 24.5 1014.8 0.0
01/06:30pm E 9 14 - - - - 10 Cloudy - 24.7 1014.7 0.0
01/06:00pm ESE 10 14 - - - - 10 Partly cloudy - 24.7 1014.4 0.0
01/05:30pm ESE 10 15 - - - - 10 Partly cloudy - 24.9 1014.2 0.0
01/05:00pm ESE 11 16 - - - - 10 Partly cloudy - 25.2 1014.1 0.0
01/04:31pm ESE 10 15 - - - - 10 Cloudy - 25.2 1014.0 0.0
01/04:30pm ESE 10 15 - - - - 10 Cloudy - 25.3 1014.0 0.0
01/04:00pm ESE 11 16 - - - - 10 Cloudy - 25.4 1014.0 0.0
01/03:30pm E 12 17 - - - - 10 Partly cloudy - 26.3 1014.1 0.0
01/03:00pm E 13 17 - - - - 10 Partly cloudy - 26.6 1014.2 0.0
01/02:30pm E 13 18 - - - - 10 Partly cloudy - 26.3 1014.5 0.0
01/02:00pm ESE 13 19 - - - - 10 Partly cloudy - 26.2 1014.7 0.0
01/01:30pm ESE 13 18 - - - - 10 Partly cloudy - 26.4 1015.0 0.0
01/01:00pm E 12 19 - - - - 10 Cloudy - 26.6 1015.3 0.0
01/12:30pm ESE 12 17 - - - - 10 Cloudy - 25.8 1015.5 0.0
01/12:00pm E 14 18 - - - - 10 Partly cloudy - 26.2 1016.0 0.0
01/11:30am E 13 21 - - - - 10 Partly cloudy - 26.0 1016.2 0.0
01/11:00am ESE 12 17 - - - - 10 Cloudy - 25.9 1016.4 0.0
01/10:30am ESE 11 19 - - - - 10 Cloudy - 25.4 1016.4 0.0
01/10:00am E 13 18 - - - - 10 Cloudy - 25.3 1016.7 0.0
01/09:30am E 10 17 - - - - 10 Cloudy - 25.5 1016.3 0.0
01/09:00am ESE 10 17 - - - - 10 Cloudy - 25.0 1016.1 0.0
01/08:33am ESE 10 15 - - - - 10 Partly cloudy - 24.9 1015.9 0.0
01/08:30am ESE 11 17 - - - - 10 Partly cloudy - 24.9 1015.9 0.0
01/08:00am ESE 11 18 - - - - 10 Partly cloudy - 24.5 1015.6 0.0
01/07:30am E 11 17 - - - - 10 Partly cloudy - 23.8 1015.4 0.0
01/07:00am ESE 8 12 - - - - 10 Cloudy - 23.7 1015.2 0.0
01/06:30am ESE 9 13 - - - - 10 Partly cloudy - 23.7 1014.8 0.0
01/06:28am ESE 9 14 - - - - 10 Partly cloudy - 23.6 1014.8 0.0
01/06:00am ESE 11 15 - - - - 10 Partly cloudy - 23.4 1014.4 0.0
01/05:30am ESE 11 18 - - - - 10 Partly cloudy - 23.4 1014.3 0.0
01/05:00am ESE 10 15 - - - - 10 Cloudy - 23.5 1014.4 0.0
01/04:30am ESE 10 15 - - - - 10 Cloudy - 23.6 1014.4 0.0
01/04:00am ESE 9 13 - - - - 10 Cloudy - 23.6 1014.4 0.0
01/03:30am ESE 9 15 - - - - 10 Partly cloudy - 23.6 1014.6 0.0
01/03:00am ESE 10 14 - - - - 10 Partly cloudy - 23.5 1014.9 0.0
01/02:30am ESE 11 15 - - - - 10 Partly cloudy - 23.6 1015.1 0.0
01/02:00am ESE 11 16 - - - - 10 Partly cloudy - 23.6 1015.5 0.0
01/01:30am ESE 10 14 - - - - 10 Cloudy - 23.6 1015.5 0.0
01/01:00am ESE 11 15 - - - - 10 Cloudy - 23.7 1015.6 0.0
01/12:30am ESE 12 17 - - - - 10 Partly cloudy - 23.7 1015.9 0.0
01/12:00am ESE 11 17 - - - - 10 Partly cloudy - 23.7 1016.1 0.0
 
Date/Time
WST
Wind Sea
Height
m
Swell Vis
km
Cloud Weather Temp
°C
Press
MSL
hPa
Rain since
9am
mm
Dir  Spd
kts
Gust
kts
Height
m
Period
s
Dir
31/11:30pm SE 10 14 - - - - 10 Partly cloudy - 23.6 1016.3 0.0
31/11:15pm ESE 10 15 - - - - 10 Partly cloudy - 23.7 1016.3 0.0
31/11:00pm SE 11 16 - - - - 10 Partly cloudy - 23.8 1016.4 0.0
31/10:30pm ESE 10 16 - - - - 10 Partly cloudy - 23.7 1016.5 0.0
31/10:00pm ESE 10 15 - - - - 10 Cloudy - 23.8 1016.5 0.0
31/09:30pm ESE 9 13 - - - - 10 Partly cloudy - 23.6 1016.5 0.0
31/09:00pm ESE 10 15 - - - - 10 Partly cloudy - 23.7 1016.2 0.0
31/08:30pm ESE 9 14 - - - - 10 Cloudy - 23.8 1015.7 0.0
31/08:00pm SE 9 13 - - - - 10 Partly cloudy - 23.7 1015.3 0.0
31/07:30pm ESE 9 15 - - - - 10 Partly cloudy - 23.9 1014.8 0.0
31/07:00pm SE 9 13 - - - - 10 Mostly cloudy - 24.0 1014.7 0.0
31/06:30pm ESE 8 11 - - - - 10 Partly cloudy - 24.2 1014.4 0.0
31/06:00pm ESE 9 13 - - - - 10 Partly cloudy - 24.6 1014.5 0.0
31/05:30pm ESE 8 12 - - - - 10 Partly cloudy - 25.2 1014.5 0.0
31/05:00pm SE 9 13 - - - - 10 Cloudy - 24.8 1014.4 0.0
31/04:30pm ESE 8 13 - - - - 10 Partly cloudy - 25.5 1014.4 0.0
31/04:00pm SE 8 13 - - - - 10 Mostly cloudy - 25.9 1014.4 0.0
31/03:35pm ESE 9 13 - - - - 10 Partly cloudy - 25.6 1014.5 0.0
31/03:30pm ESE 9 13 - - - - 10 Partly cloudy - 26.0 1014.5 0.0
31/03:00pm ESE 9 13 - - - - 10 Partly cloudy - 25.7 1014.9 0.0
31/02:30pm E 9 13 - - - - 10 Partly cloudy - 26.3 1015.1 0.0
31/02:00pm ESE 10 13 - - - - 10 Cloudy - 26.3 1015.5 0.0
31/01:30pm ESE 11 15 - - - - 10 Partly cloudy - 25.9 1015.6 0.0
31/01:00pm E 11 15 - - - - 10 Mostly cloudy - 26.4 1015.7 0.0
31/12:30pm E 11 15 - - - - 10 Cloudy - 26.4 1015.8 0.0
31/12:00pm E 11 16 - - - - 10 Partly cloudy - 25.9 1016.1 0.0
31/11:30am ESE 12 16 - - - - 10 Partly cloudy - 25.5 1016.6 0.0
31/11:00am ESE 11 16 - - - - 10 Cloudy - 25.7 1016.9 0.0
31/10:30am ESE 12 15 - - - - 10 Partly cloudy - 25.3 1017.0 0.0
31/10:00am ESE 10 15 - - - - 10 Partly cloudy - 25.6 1017.0 0.2
31/09:30am ESE 9 14 - - - - 10 Partly cloudy - 25.0 1017.0 -
31/09:21am ESE 9 13 - - - - 10 Partly cloudy - 25.2 1016.9 -
31/09:15am ESE 10 15 - - - - 10 Partly cloudy - 24.8 1016.9 -
31/09:00am ESE 9 13 - - - - 10 Partly cloudy - 24.5 1016.9 -
31/08:30am ESE 9 13 - - - - 10 Partly cloudy - 24.4 1016.8 -
31/08:00am ESE 9 13 - - - - 10 Partly cloudy - 24.0 1016.6 -
31/07:48am ESE 7 11 - - - - 10 Partly cloudy - 23.7 1016.5 -
31/07:30am ESE 8 13 - - - - 10 Partly cloudy - 23.3 1016.3 -
31/07:00am ESE 9 11 - - - - 10 Partly cloudy - 22.9 1015.7 -
31/06:43am SE 7 13 - - - - 10 Partly cloudy - 23.0 1015.5 -
31/06:30am SE 7 12 - - - - 10 Mostly clear - 22.7 1015.3 -
31/06:26am SE 8 12 - - - - 10 Mostly clear - 22.7 1015.2 -
31/06:00am SE 8 13 - - - - 10 Partly cloudy - 22.8 1015.1 -
31/05:30am SE 7 10 - - - - 10 Partly cloudy - 22.7 1014.9 -
31/05:15am SE 7 10 - - - - 10 Partly cloudy - 22.6 1014.8 -
31/05:00am SE 7 10 - - - - 10 - - 22.6 1014.6 -
31/04:30am SE 7 11 - - - - 10 Partly cloudy - 22.8 1014.6 0.2
31/04:00am SE 7 10 - - - - 10 Partly cloudy - 22.8 1014.5 0.2
31/03:37am SE 6 10 - - - - 10 Partly cloudy - 22.7 1014.5 0.2
31/03:34am SE 7 10 - - - - 10 Partly cloudy - 22.7 1014.5 0.2
31/03:30am SE 7 10 - - - - 10 Partly cloudy - 22.8 1014.5 0.2
31/03:17am SE 5 9 - - - - 10 Partly cloudy - 22.7 1014.4 0.2
31/03:00am SE 5 9 - - - - 10 Partly cloudy - 22.6 1014.5 0.2
31/02:30am SE 5 7 - - - - 10 - - 22.4 1014.7 0.2
31/02:15am SE 5 7 - - - - 10 Mostly clear - 22.4 1014.8 0.2
31/02:00am SE 6 9 - - - - 10 Partly cloudy - 22.6 1015.0 0.2
31/01:45am SE 5 7 - - - - 10 Partly cloudy - 22.7 1015.1 0.2

Other formats

Comma delimited format used in spreadsheet applications
http://www.bom.gov.au/fwo/IDW60701/IDW60701.96995.axf

JavaScript Object Notation format (JSON) in row-major order
http://www.bom.gov.au/fwo/IDW60701/IDW60701.96995.json

Data quality

Most of these data are generated automatically and are frequently updated. Quality checks on data are not normally performed. It is possible for incorrect values to appear. Refer to information at About Latest Weather Observations and please check the disclaimer before using these data.